Tiempo cada hora Ceglowo

Hoy, 20 Abril, Martes

Tiempo Temperatura Precipitaciones Viento Presión Humedad
00:00 +9°C° 0.1 mm 1 mps 751 mmHg 84%
01:00 +9°C° 0 mm 1 mps 751 mmHg 86%
02:00 +9°C° 0 mm 1 mps 751 mmHg 87%
03:00 +9°C° 0 mm 1 mps 751 mmHg 87%
04:00 +8°C° 0 mm 1 mps 750 mmHg 88%
05:00 +9°C° 0 mm 1 mps 750 mmHg 84%
06:00 +10°C° 0 mm 1 mps 750 mmHg 81%
07:00 +11°C° 0 mm 1 mps 750 mmHg 77%
08:00 +12°C° 0.3 mm 1 mps 750 mmHg 70%
09:00 +13°C° 0.3 mm 1 mps 750 mmHg 63%
10:00 +14°C° 0.3 mm 1 mps 750 mmHg 55%
11:00 +15°C° 0.1 mm 1 mps 749 mmHg 52%
12:00 +15°C° 0.1 mm 1 mps 749 mmHg 49%
13:00 +16°C° 0.1 mm 1 mps 749 mmHg 46%
14:00 +16°C° 0 mm 1 mps 748 mmHg 48%
15:00 +15°C° 0 mm 2 mps 748 mmHg 49%
16:00 +15°C° 0 mm 2 mps 748 mmHg 51%
17:00 +13°C° 0 mm 2 mps 748 mmHg 58%
18:00 +12°C° 0 mm 2 mps 748 mmHg 66%
19:00 +9°C° 0 mm 2 mps 747 mmHg 74%
20:00 +9°C° 0 mm 2 mps 747 mmHg 76%
21:00 +9°C° 0 mm 1 mps 747 mmHg 79%
22:00 +8°C° 0 mm 1 mps 747 mmHg 81%
23:00 +8°C° 0 mm 1 mps 747 mmHg 82%

Mañana, 21 Abril, Miércoles

Tiempo Temperatura Precipitaciones Viento Presión Humedad
00:00 +8°C° 0 mm 1 mps 747 mmHg 82%
01:00 +8°C° 0 mm 1 mps 747 mmHg 82%
02:00 +8°C° 0 mm 1 mps 747 mmHg 82%
03:00 +8°C° 0 mm 1 mps 746 mmHg 82%
04:00 +7°C° 0 mm 1 mps 746 mmHg 82%
05:00 +8°C° 0 mm 1 mps 746 mmHg 78%
06:00 +9°C° 0 mm 1 mps 746 mmHg 73%
07:00 +10°C° 0 mm 1 mps 746 mmHg 69%
08:00 +12°C° 0 mm 2 mps 746 mmHg 63%
09:00 +13°C° 0 mm 2 mps 746 mmHg 56%
10:00 +14°C° 0 mm 2 mps 746 mmHg 49%
11:00 +14°C° 0 mm 3 mps 746 mmHg 47%
12:00 +14°C° 0 mm 3 mps 745 mmHg 44%
13:00 +16°C° 0 mm 3 mps 745 mmHg 41%
14:00 +16°C° 0 mm 3 mps 745 mmHg 43%
15:00 +14°C° 0 mm 3 mps 745 mmHg 46%
16:00 +15°C° 0 mm 2 mps 744 mmHg 48%
17:00 +13°C° 0.1 mm 2 mps 745 mmHg 56%
18:00 +12°C° 0.1 mm 2 mps 745 mmHg 65%
19:00 +9°C° 0.1 mm 2 mps 745 mmHg 74%
20:00 +9°C° 0.1 mm 2 mps 745 mmHg 78%
21:00 +8°C° 0.1 mm 2 mps 745 mmHg 82%
22:00 +7°C° 0.1 mm 2 mps 745 mmHg 87%
23:00 +5°C° 0.4 mm 3 mps 745 mmHg 88%

Pasado mañana, 22 Abril, Jueves

Tiempo Temperatura Precipitaciones Viento Presión Humedad
00:00 +4°C° 0.4 mm 4 mps 745 mmHg 90%
01:00 +4°C° 0.4 mm 4 mps 745 mmHg 92%
02:00 +3°C° 0.3 mm 4 mps 745 mmHg 90%
03:00 +3°C° 0.3 mm 4 mps 745 mmHg 88%
04:00 +1°C° 0.3 mm 4 mps 745 mmHg 86%
05:00 +1°C° 0 mm 5 mps 745 mmHg 84%
06:00 +1°C° 0 mm 5 mps 745 mmHg 81%
07:00 +2°C° 0 mm 6 mps 746 mmHg 79%
08:00 +3°C° 0 mm 6 mps 746 mmHg 73%
09:00 +4°C° 0 mm 6 mps 746 mmHg 68%
10:00 +5°C° 0 mm 6 mps 746 mmHg 62%
11:00 +5°C° 0.1 mm 6 mps 746 mmHg 57%
12:00 +6°C° 0.1 mm 7 mps 746 mmHg 53%
13:00 +8°C° 0.1 mm 7 mps 746 mmHg 49%
14:00 +7°C° 0.2 mm 6 mps 746 mmHg 49%
15:00 +7°C° 0.2 mm 6 mps 746 mmHg 50%
16:00 +7°C° 0.2 mm 6 mps 746 mmHg 51%
17:00 +5°C° 0 mm 5 mps 747 mmHg 55%
18:00 +4°C° 0 mm 4 mps 747 mmHg 60%
19:00 +3°C° 0 mm 4 mps 747 mmHg 65%
20:00 +1°C° 0 mm 4 mps 747 mmHg 66%
21:00 +1°C° 0 mm 4 mps 747 mmHg 67%
22:00 0°C° 0 mm 4 mps 747 mmHg 69%
23:00 0°C° 0 mm 4 mps 747 mmHg 70%

23 Abril, Viernes

Tiempo Temperatura Precipitaciones Viento Presión Humedad
00:00 0°C° 0 mm 4 mps 748 mmHg 72%
01:00 0°C° 0 mm 4 mps 748 mmHg 73%
02:00 0°C° 0 mm 5 mps 748 mmHg 74%
03:00 0°C° 0 mm 5 mps 748 mmHg 75%
04:00 -1°C° 0 mm 5 mps 748 mmHg 76%
05:00 0°C° 0 mm 5 mps 748 mmHg 72%
06:00 +1°C° 0 mm 5 mps 748 mmHg 67%
07:00 +2°C° 0 mm 5 mps 748 mmHg 63%
08:00 +2°C° 0.2 mm 6 mps 749 mmHg 64%
09:00 +2°C° 0.2 mm 6 mps 749 mmHg 65%
10:00 +2°C° 0.2 mm 6 mps 749 mmHg 66%
11:00 +3°C° 0.2 mm 6 mps 749 mmHg 60%
12:00 +4°C° 0.2 mm 6 mps 749 mmHg 55%
13:00 +4°C° 0.2 mm 6 mps 749 mmHg 49%
14:00 +4°C° 0.1 mm 6 mps 750 mmHg 50%
15:00 +4°C° 0.1 mm 6 mps 750 mmHg 51%
16:00 +3°C° 0.1 mm 6 mps 751 mmHg 51%
17:00 +2°C° 0 mm 5 mps 751 mmHg 57%
18:00 +1°C° 0 mm 4 mps 751 mmHg 63%
19:00 +1°C° 0 mm 3 mps 752 mmHg 68%
20:00 0°C° 0 mm 3 mps 752 mmHg 69%
21:00 0°C° 0 mm 3 mps 752 mmHg 70%
22:00 -1°C° 0 mm 3 mps 752 mmHg 71%
23:00 -2°C° 0 mm 4 mps 751 mmHg 70%

24 Abril, Sábado

Tiempo Temperatura Precipitaciones Viento Presión Humedad
00:00 -1°C° 0 mm 4 mps 751 mmHg 70%
01:00 -1°C° 0 mm 5 mps 751 mmHg 70%
02:00 -1°C° 0 mm 5 mps 751 mmHg 71%
03:00 -1°C° 0 mm 5 mps 751 mmHg 72%
04:00 -1°C° 0 mm 5 mps 751 mmHg 73%
05:00 0°C° 0 mm 5 mps 751 mmHg 70%
06:00 +1°C° 0 mm 5 mps 751 mmHg 67%
07:00 +2°C° 0 mm 5 mps 751 mmHg 63%
08:00 +3°C° 0.1 mm 6 mps 751 mmHg 58%
09:00 +4°C° 0.1 mm 6 mps 751 mmHg 52%
10:00 +5°C° 0.1 mm 6 mps 750 mmHg 47%
11:00 +5°C° 0.1 mm 7 mps 750 mmHg 45%
12:00 +6°C° 0.1 mm 7 mps 750 mmHg 43%
13:00 +6°C° 0.1 mm 7 mps 750 mmHg 41%
14:00 +5°C° 0 mm 7 mps 750 mmHg 43%
15:00 +4°C° 0 mm 7 mps 751 mmHg 45%
16:00 +4°C° 0 mm 7 mps 751 mmHg 47%
17:00 +2°C° 0 mm 5 mps 751 mmHg 53%
18:00 +1°C° 0 mm 4 mps 751 mmHg 59%
19:00 0°C° 0 mm 3 mps 751 mmHg 65%
20:00 -1°C° 0 mm 2 mps 751 mmHg 68%
21:00 -1°C° 0 mm 2 mps 751 mmHg 70%
22:00 -2°C° 0 mm 2 mps 751 mmHg 73%
23:00 -2°C° 0 mm 2 mps 751 mmHg 71%

25 Abril, Domingo

Tiempo Temperatura Precipitaciones Viento Presión Humedad
00:00 -2°C° 0 mm 2 mps 751 mmHg 69%
01:00 -2°C° 0 mm 3 mps 750 mmHg 67%
02:00 -2°C° 0 mm 3 mps 750 mmHg 70%
03:00 -2°C° 0 mm 3 mps 750 mmHg 74%
04:00 -2°C° 0 mm 3 mps 750 mmHg 77%
05:00 0°C° 0 mm 3 mps 749 mmHg 72%
06:00 0°C° 0 mm 4 mps 749 mmHg 67%
07:00 +3°C° 0 mm 4 mps 749 mmHg 62%
08:00 +2°C° 0.1 mm 5 mps 749 mmHg 60%
09:00 +3°C° 0.1 mm 5 mps 750 mmHg 58%
10:00 +4°C° 0.1 mm 6 mps 750 mmHg 56%
11:00 +4°C° 0.2 mm 6 mps 750 mmHg 58%
12:00 +4°C° 0.2 mm 6 mps 750 mmHg 59%
13:00 +4°C° 0.2 mm 6 mps 750 mmHg 61%
14:00 +4°C° 0.2 mm 6 mps 750 mmHg 64%
15:00 +3°C° 0.2 mm 6 mps 750 mmHg 67%
16:00 +3°C° 0.2 mm 6 mps 750 mmHg 70%
17:00 +2°C° 0 mm 5 mps 750 mmHg 74%
18:00 0°C° 0 mm 4 mps 750 mmHg 78%
19:00 0°C° 0 mm 3 mps 750 mmHg 82%
20:00 -1°C° 0 mm 3 mps 750 mmHg 85%
21:00 -1°C° 0 mm 2 mps 750 mmHg 89%
22:00 -2°C° 0 mm 2 mps 750 mmHg 92%
23:00 -2°C° 0 mm 2 mps 750 mmHg 93%
Mostrar más

Necesitamos Su Consentimiento

Meteoprog y nuestros Proveedores de Servicios pueden almacenar y acceder a sus datos personales como cookies, identificadores de dispositivo u otras tecnologías similares de su dispositivo y procesar dichos datos para personalizar contenido y anuncios, además de ofrecer funciones de redes sociales y analizar el tráfico.

  • Almacenar y/o acceder a información en su dispositivo

    Se puede almacenar o acceder a cookies, identificadores de dispositivo u otra información de su dispositivo para los fines anteriormente indicados.

  • Anuncios y contenido personalizados, medición de anuncios y contenido, percepciones del público, y desarrollo de productos

    Los anuncios y el contenido pueden personalizarse en base a su perfil. Se pueden añadir más datos para personalizar mejor los anuncios y contenidos. Se puede medir el rendimiento de los anuncios y contenidos. Se puede obtener la percepción sobre el público que ha visto los anuncios y contenidos. Dichos datos pueden usarse para desarrollar o mejorar la experiencia del usuario, sistemas y software.

Al hacer clic en ‘Estoy De Acuerdo’ usted permitirá el uso de las cookies, identificadores de dispositivo, balizas web u otras tecnologías similares indicadas. Su configuración puede cambiarse desde el navegador de su dispositivo.

Para ciertos fines, los intereses legítimos pueden ser considerados por encima del consentimiento. Puede leer más sobre ello en nuestra Política de Privacidad y Cookies.